TELSTAR 18V

Last updated on Sat Oct 18 2025 00:02:55 GMT+0000 (Coordinated Universal Time)

1 43611U 18069A 25290.62565851 -.00000303 00000+0 00000+0 0 9990 2 43611 0.0134 254.9814 0001980 320.3561 174.2854 1.00269852 26198
UTC large
Height (km)
Speed (km/s)
/
Latitude / Longitude
Inclination (degrees)
Orbital Period (minutes)
Azimuth
Elevation
Range (km)
Doppler Factor

Next 0 passes for location: London (51.5072 / 0.1276)

Sorry there are no passes over London.